SCP
0 0 0 0 0 -0 -0 0 0 0 0 0 0 0 0 0 0 0 0 0 0 -0 0 1 0 2 1 4 4 2 1 3 2 3 2 1 1 0 0 0 0 0 0 1
0 0 0 0 0 0 0 0 0 0 -0 0 0 0 0 0 0 0 0 0 0 -0 1 1 1 0 0 6 5 3 2 2 1 1 1 0 0 0 0 0 0 0 1 0
0 0 -0 0 0 0 0 0 -0 0 0 0 0 0 0 0 0 0 0 0 0 0 0 0 0 1 3 0 6 3 2 1 1 1 1 0 0 1 1 0 2 2 0 0
0 0 0 0 0 0 0 0 -0 0 -0 0 0 0 0 0 0 0 0 0 0 0 0 2 1 1 0 -0 0 4 4 2 1 1 0 0 0 1 1 0 0 0 0 0
0 0 0 0 0 0 0 0 0 0 0 0 -0 0 0 0 0 0 0 0 0 0 0 2 0 0 0 0 -0 2 3 3 1 1 0 0 0 1 0 0 0 0 0 0
0 0 0 0 0 0 0 0 -0 0 -0 0 -0 0 0 0 0 0 0 0 0 0 0 2 0 0 0 0 1 2 2 2 1 1 1 0 1 1 1 0 0 0 0 0
-0 -0 0 0 0 0 0 0 0 0 0 -0 -0 0 0 0 0 0 0 0 0 0 0 6 4 1 0 1 0 1 1 1 1 0 0 0 1 0 0 0 0 0 0 0
0 -0 0 0 0 0 0 0 0 0 0 -0 0 -0 -0 0 0 0 -0 -0 0 0 0 5 4 3 3 3 2 1 1 1 1 1 0 1 1 0 0 0 0 0 0 0
0 0 0 0 -0 0 0 0 0 0 0 -0 0 0 -0 0 -0 0 -0 0 0 0 0 2 5 4 4 2 2 2 2 1 1 1 2 1 1 0 0 0 0 0 0 0
0 0 0 -0 -0 0 0 0 0 0 0 0 -0 0 0 0 -0 0 0 0 0 0 0 0 5 4 4 2 3 2 2 2 2 2 3 2 0 0 0 0 0 0 0 0
0 0 0 -0 0 0 0 0 0 0 0 -0 -0 -0 0 0 0 -0 -0 0 -0 0 0 0 2 1 0 1 1 2 2 2 3 2 0 0 0 0 0 0 0 0 0 0
0 0 0 -0 -0 0 0 0 0 -0 0 0 -0 0 0 -0 0 0 -0 0 0 0 0 0 4 3 2 2 2 2 3 2 1 0 0 0 0 0 0 0 0 0 0 0
0 0 0 -0 0 0 -0 0 0 -0 -0 -0 -0 0 -0 0 -0 -0 0 0 -0 -0 0 4 5 2 2 1 3 2 1 0 0 0 0 0 0 0 0 0 0 0 0 0
0 0 0 0 -0 0 -0 0 0 0 -0 0 0 0 0 0 -0 -0 0 0 0 0 1 1 0 0 0 0 0 0 0 0 0 0 0 0 0 0 0 0 0 0 0 0
0 0 -0 -0 -0 -0 -0 -0 0 0 0 -0 -0 0 0 0 0 0 0 1 2 2 3 0 0 0 0 0 0 0 0 0 0 0 0 0 0 0 0 0 0 0 0 0
0 0 -0 -0 -0 -0 -0 -0 0 0 0 -0 0 0 0 -0 0 0 0 1 1 1 1 0 0 0 0 0 0 0 0 0 0 0 -0 0 0 0 0 0 0 0 0 0
0 0 0 0 -0 -0 -0 -0 0 -0 -0 0 -0 0 0 0 0 0 0 0 0 0 0 0 0 0 0 0 0 0 0 0 0 0 0 0 0 0 0 0 0 0 0 0
-0 -0 0 0 -0 -0 -0 -0 0 -0 0 0 0 -0 0 -0 -0 0 0 0 0 0 0 0 0 0 0 0 0 0 0 -0 -0 0 0 0 0 0 0 0 0 0 0 0
0 -0 -0 -0 -0 -0 0 0 0 0 -0 0 -0 -0 0 0 -0 0 0 0 0 0 0 0 0 0 0 0 0 0 0 0 0 0 0 0 0 0 0 0 0 0 0 0
0 -0 -0 -0 -0 -0 -0 -0 -0 0 -0 0 -0 -0 -0 0 -0 -0 0 0 0 0 0 0 -0 0 0 0 0 0 0 0 0 0 0 0 0 0 0 0 0 0 0 0
-0 -0 -0 -0 -0 0 0 -0 0 0 0 -0 -0 -0 -0 0 0 -0 0 0 0 0 0 0 0 0 0 0 0 0 0 0 0 0 0 0 0 0 0 0 0 0 0 0
0 -0 -0 -0 -0 -0 -0 0 0 0 0 -0 -0 -0 -0 0 0 -0 0 0 0 0 0 0 -0 -0 0 0 0 0 0 0 0 0 0 0 0 0 0 0 0 0 0 0
0 -0 -0 -0 -0 -0 -0 -0 -0 0 0 0 -0 0 -0 0 0 0 0 0 0 0 0 0 0 0 0 0 0 0 0 0 0 0 0 0 0 0 0 0 0 0 0 0
0 0 0 0 0 -0 0 -0 0 0 0 0 0 0 -0 0 0 0 0 0 0 0 0 0 0 0 0 0 0 0 0 0 0 0 0 0 0 0 0 0 0 0 0 0
0 0 0 0 0 0 0 -0 0 0 0 0 0 0 0 0 0 0 0 0 0 0 0 0 0 0 0 0 0 0 0 0 0 0 0 0 0 0 0 0 0 0 0 0
0 0 0 0 0 0 0 0 0 0 0 0 0 0 0 0 0 0 0 0 0 0 0 0 0 0 0 0 0 0 0 0 0 0 0 0 0 0 0 0 0 0 0 0
Wind_Speed_500mb
36 4 21 30 15 30 23 18 26 32 29 31 35 39 39 41 48 52 62 58 65 54 43 72 64 61 54 103 100 89 84 80 73 67 72 65 53 50 38 31 29 26 21 18
20 31 31 37 35 29 42 24 28 27 30 31 39 39 44 41 36 55 59 58 67 59 40 64 92 68 52 81 87 81 75 72 65 75 73 66 64 51 48 38 33 27 24 19
27 37 40 22 23 24 31 22 31 29 32 27 33 39 35 41 44 59 69 67 70 72 50 65 85 84 86 47 83 88 81 74 65 62 68 56 55 48 54 37 39 29 24 18
18 14 30 9 14 22 34 34 12 19 36 22 9 14 27 31 34 38 50 59 69 73 55 73 79 83 75 68 69 79 75 73 66 66 72 56 56 55 50 41 34 33 26 24
25 37 39 38 28 27 27 3 5 15 21 17 20 5 21 30 30 26 31 52 71 73 59 91 97 93 69 81 77 72 75 74 72 71 67 58 58 49 49 43 36 36 35 29
35 59 33 31 18 23 12 5 5 9 6 11 25 17 15 22 36 26 26 48 63 70 73 76 84 99 69 70 83 75 81 83 80 76 68 65 63 56 48 43 42 35 34 32
24 20 17 12 10 12 10 9 6 6 5 11 9 21 30 18 29 35 41 44 61 70 74 84 94 100 91 98 97 94 96 93 86 78 70 67 64 59 48 39 35 32 29 25
19 19 7 18 15 7 5 6 4 8 6 8 14 23 22 38 46 43 61 58 65 68 76 91 94 94 97 99 93 88 85 84 82 75 71 65 61 51 43 38 32 29 26 24
11 13 29 28 17 20 7 12 7 8 17 8 11 16 18 39 38 30 48 51 50 53 42 85 88 78 71 74 80 77 75 73 77 76 66 62 60 53 46 39 32 29 24 15
5 17 15 33 23 29 9 10 2 4 8 4 16 15 20 16 35 32 51 47 63 68 68 57 97 87 71 75 85 77 75 75 73 81 63 59 59 50 44 40 36 27 14 6
5 5 27 27 3 8 3 4 7 4 8 5 7 8 15 18 22 27 43 75 84 70 79 64 92 92 80 97 73 74 77 74 73 80 72 65 53 45 39 37 29 20 11 4
8 9 15 38 36 20 29 7 14 7 9 7 5 12 19 43 38 26 35 78 88 75 87 67 86 88 80 88 91 84 79 79 82 86 76 62 58 48 45 39 25 17 12 19
10 5 15 20 19 9 12 5 16 1 5 12 9 12 24 34 46 38 41 66 80 77 52 58 84 94 90 75 62 66 92 93 88 78 71 64 56 51 42 31 24 19 26 33
2 4 13 12 26 30 39 26 27 14 7 5 10 28 29 44 53 48 49 51 57 52 57 62 75 82 78 65 54 46 93 89 83 70 63 61 51 46 37 31 33 37 38 34
5 7 23 33 42 31 21 45 13 15 17 12 25 35 33 34 43 38 62 71 54 67 74 78 88 76 69 65 68 76 76 78 75 61 42 53 43 44 45 49 50 46 37 30
10 11 29 27 27 32 22 50 33 22 27 24 34 35 19 41 36 44 56 60 59 52 74 86 94 84 79 82 47 84 69 53 57 60 66 64 61 55 53 53 48 42 36 28
7 9 13 13 35 39 18 37 28 36 33 13 16 7 13 14 25 48 47 61 50 54 54 56 54 50 66 68 53 48 42 53 52 69 71 64 59 58 58 52 47 41 33 25
11 12 7 11 20 8 10 30 29 27 36 42 31 26 22 16 24 62 62 42 45 48 53 58 77 62 39 59 68 72 77 75 70 67 62 60 59 60 57 49 41 36 27 19
9 8 8 6 7 12 20 32 26 20 13 35 37 38 34 22 36 42 47 35 37 42 30 48 52 57 68 69 73 73 73 68 63 59 64 62 60 58 52 47 39 31 22 18
19 5 4 8 8 4 2 36 59 12 3 34 42 36 26 1 7 3 22 37 45 57 56 52 49 54 62 69 70 67 64 63 65 65 64 60 57 56 50 42 36 30 22 26
11 9 5 10 7 10 20 47 39 13 12 47 47 38 31 9 9 15 19 38 49 52 56 63 67 57 58 63 68 72 74 73 71 68 64 59 51 48 43 40 32 28 31 31
3 8 7 7 6 11 34 22 13 6 21 37 40 16 25 23 23 21 27 36 55 62 62 61 68 68 63 68 73 80 75 68 66 61 54 48 47 45 39 35 41 41 36 32
3 7 5 4 6 5 11 9 13 21 34 34 41 10 16 25 23 28 30 35 44 62 66 68 70 67 63 67 70 76 68 61 55 56 57 52 48 48 51 51 44 39 32 29
8 15 6 8 3 11 19 10 13 27 37 35 24 13 13 25 24 31 38 36 42 44 55 58 62 65 65 58 61 61 61 62 62 58 55 55 53 52 50 43 39 38 38 35
15 11 7 3 5 19 7 7 9 29 32 27 16 20 8 19 29 32 38 42 41 45 45 45 55 60 63 61 62 63 61 57 57 58 58 53 47 43 42 40 37 33 28 19
26 5 4 5 6 9 10 18 12 18 28 9 7 10 11 16 31 32 37 42 44 43 42 45 49 56 61 67 66 60 53 50 55 59 52 43 38 36 33 31 36 27 17 19
Wind_Direction_500mb
287 184 262 270 284 304 291 285 278 286 291 286 285 285 289 246 243 257 259 256 257 260 226 182 190 161 164 177 179 182 180 183 186 185 189 187 187 184 184 196 213 214 218 224
295 264 257 248 289 266 297 262 269 282 284 289 287 278 284 276 221 237 248 258 247 247 228 192 187 207 215 167 176 184 187 187 194 194 197 199 199 190 191 193 203 207 206 229
284 287 295 209 261 307 273 278 291 283 288 276 285 282 275 285 222 233 238 243 259 240 203 190 166 179 195 237 185 184 190 191 193 195 194 196 192 192 192 184 188 192 215 236
281 323 314 352 243 243 282 265 287 319 303 278 248 291 291 270 233 221 231 237 246 236 231 187 172 169 191 212 227 183 189 193 197 190 191 190 193 188 194 189 191 192 215 218
265 290 297 279 229 245 254 36 239 238 278 306 268 248 262 261 253 216 219 223 239 225 225 176 167 178 184 186 213 201 198 197 198 193 189 187 190 192 194 190 192 205 214 214
284 287 264 251 274 237 118 359 293 239 197 249 225 200 257 231 226 218 213 224 230 216 217 179 175 174 190 187 209 208 202 203 198 196 196 192 196 195 191 198 201 202 205 215
322 326 55 14 289 227 89 44 329 329 181 237 177 193 238 269 226 207 217 218 234 205 202 170 169 175 179 189 199 199 203 201 198 196 196 192 191 197 194 194 199 201 206 211
351 329 46 348 286 298 105 162 164 276 269 325 298 233 234 240 254 220 217 214 223 197 183 172 183 191 190 190 196 194 195 197 198 195 186 183 191 191 189 199 196 202 195 207
324 280 331 294 324 150 150 215 186 229 256 271 253 250 286 225 237 234 211 216 221 219 205 177 178 184 182 192 195 196 194 191 187 179 177 185 189 191 192 183 196 198 196 188
281 288 299 316 314 34 141 134 206 187 307 285 270 214 220 215 230 240 204 206 214 220 221 202 172 177 177 195 194 195 192 184 178 173 177 182 188 187 191 191 185 177 154 235
268 220 293 296 353 246 294 153 79 256 254 258 304 284 27 344 295 278 243 199 207 209 219 206 173 188 200 193 194 187 184 182 173 175 177 181 175 185 183 182 172 172 192 253
106 295 294 297 299 280 199 190 160 177 286 257 260 292 348 344 305 276 191 189 198 208 220 202 168 174 180 183 185 189 180 174 173 179 179 179 184 183 176 166 164 174 188 175
355 5 306 336 340 58 48 309 259 34 113 11 348 278 345 325 356 342 191 179 197 206 211 141 156 170 177 170 177 190 176 172 175 177 178 182 169 164 160 162 163 169 160 148
163 269 274 312 286 283 291 258 244 247 100 250 221 288 322 346 4 357 7 180 194 208 147 125 149 145 164 173 199 153 166 171 173 176 163 155 156 154 151 146 151 151 147 152
257 252 285 297 291 314 356 20 15 259 149 51 337 11 16 356 358 335 40 45 107 122 112 112 130 142 150 146 158 147 155 150 151 150 179 162 148 142 144 149 147 147 151 157
294 294 314 311 308 329 23 22 40 91 112 91 60 32 332 2 346 16 38 45 58 86 102 116 121 125 140 163 163 154 142 139 142 149 149 147 146 140 143 145 146 148 152 154
260 320 312 282 314 309 30 25 24 38 30 42 70 77 74 318 16 21 8 34 43 78 106 121 126 136 138 152 161 166 144 157 154 144 143 139 140 142 144 146 149 149 150 150
307 307 256 281 318 38 143 41 38 29 10 1 10 20 99 82 61 44 44 52 29 92 105 120 138 154 162 156 154 155 152 151 146 141 141 146 146 143 147 146 146 143 147 145
342 298 306 309 291 290 51 359 342 3 336 358 351 355 356 137 51 32 48 80 73 107 138 132 130 141 158 155 149 141 142 139 139 143 145 144 146 147 144 144 148 146 142 120
337 285 300 323 322 283 88 339 323 264 229 354 345 348 353 31 115 296 58 108 117 123 136 134 147 149 147 142 142 140 135 138 139 141 142 145 147 146 146 145 140 129 117 109
338 326 259 339 318 316 349 329 326 61 308 323 331 355 27 60 67 119 84 97 116 125 128 135 143 145 137 136 138 131 132 133 135 142 148 149 152 146 140 136 127 115 107 103
300 313 340 335 322 330 359 346 36 268 307 324 329 25 93 100 103 106 111 113 120 124 126 133 134 131 129 135 140 137 138 142 148 148 147 143 140 134 129 121 113 107 102 103
286 234 282 232 268 309 330 312 351 338 336 330 330 23 112 120 122 125 128 128 133 131 132 133 140 144 145 144 146 142 141 148 151 147 135 126 123 125 124 120 120 120 118 111
264 228 254 332 178 274 225 347 1 353 339 340 340 160 157 138 140 134 141 144 142 144 140 144 144 145 144 150 149 149 149 145 143 139 138 141 144 138 136 138 142 142 141 142
258 285 266 246 282 304 212 344 343 348 349 21 75 144 145 149 150 148 148 148 149 146 149 151 149 149 150 153 153 149 148 147 145 143 145 147 144 146 145 146 150 155 144 147
245 169 198 235 347 272 317 344 355 349 349 357 97 133 120 163 153 156 150 154 155 155 155 154 148 141 141 143 141 143 146 149 146 143 144 141 139 143 149 155 150 144 127 124
Wind_Speed_850mb
36 4 21 30 15 30 23 18 26 32 29 31 35 39 39 41 48 52 62 58 65 54 43 72 64 61 54 103 100 89 84 80 73 67 72 65 53 50 38 31 29 26 21 18
20 31 31 37 35 29 42 24 28 27 30 31 39 39 44 41 36 55 59 58 67 59 40 64 92 68 52 81 87 81 75 72 65 75 73 66 64 51 48 38 33 27 24 19
27 37 40 22 23 24 31 22 31 29 32 27 33 39 35 41 44 59 69 67 70 72 50 65 85 84 86 47 83 88 81 74 65 62 68 56 55 48 54 37 39 29 24 18
18 14 30 9 14 22 34 34 12 19 36 22 9 14 27 31 34 38 50 59 69 73 55 73 79 83 75 68 69 79 75 73 66 66 72 56 56 55 50 41 34 33 26 24
25 37 39 38 28 27 27 3 5 15 21 17 20 5 21 30 30 26 31 52 71 73 59 91 97 93 69 81 77 72 75 74 72 71 67 58 58 49 49 43 36 36 35 29
35 59 33 31 18 23 12 5 5 9 6 11 25 17 15 22 36 26 26 48 63 70 73 76 84 99 69 70 83 75 81 83 80 76 68 65 63 56 48 43 42 35 34 32
24 20 17 12 10 12 10 9 6 6 5 11 9 21 30 18 29 35 41 44 61 70 74 84 94 100 91 98 97 94 96 93 86 78 70 67 64 59 48 39 35 32 29 25
19 19 7 18 15 7 5 6 4 8 6 8 14 23 22 38 46 43 61 58 65 68 76 91 94 94 97 99 93 88 85 84 82 75 71 65 61 51 43 38 32 29 26 24
11 13 29 28 17 20 7 12 7 8 17 8 11 16 18 39 38 30 48 51 50 53 42 85 88 78 71 74 80 77 75 73 77 76 66 62 60 53 46 39 32 29 24 15
5 17 15 33 23 29 9 10 2 4 8 4 16 15 20 16 35 32 51 47 63 68 68 57 97 87 71 75 85 77 75 75 73 81 63 59 59 50 44 40 36 27 14 6
5 5 27 27 3 8 3 4 7 4 8 5 7 8 15 18 22 27 43 75 84 70 79 64 92 92 80 97 73 74 77 74 73 80 72 65 53 45 39 37 29 20 11 4
8 9 15 38 36 20 29 7 14 7 9 7 5 12 19 43 38 26 35 78 88 75 87 67 86 88 80 88 91 84 79 79 82 86 76 62 58 48 45 39 25 17 12 19
10 5 15 20 19 9 12 5 16 1 5 12 9 12 24 34 46 38 41 66 80 77 52 58 84 94 90 75 62 66 92 93 88 78 71 64 56 51 42 31 24 19 26 33
2 4 13 12 26 30 39 26 27 14 7 5 10 28 29 44 53 48 49 51 57 52 57 62 75 82 78 65 54 46 93 89 83 70 63 61 51 46 37 31 33 37 38 34
5 7 23 33 42 31 21 45 13 15 17 12 25 35 33 34 43 38 62 71 54 67 74 78 88 76 69 65 68 76 76 78 75 61 42 53 43 44 45 49 50 46 37 30
10 11 29 27 27 32 22 50 33 22 27 24 34 35 19 41 36 44 56 60 59 52 74 86 94 84 79 82 47 84 69 53 57 60 66 64 61 55 53 53 48 42 36 28
7 9 13 13 35 39 18 37 28 36 33 13 16 7 13 14 25 48 47 61 50 54 54 56 54 50 66 68 53 48 42 53 52 69 71 64 59 58 58 52 47 41 33 25
11 12 7 11 20 8 10 30 29 27 36 42 31 26 22 16 24 62 62 42 45 48 53 58 77 62 39 59 68 72 77 75 70 67 62 60 59 60 57 49 41 36 27 19
9 8 8 6 7 12 20 32 26 20 13 35 37 38 34 22 36 42 47 35 37 42 30 48 52 57 68 69 73 73 73 68 63 59 64 62 60 58 52 47 39 31 22 18
19 5 4 8 8 4 2 36 59 12 3 34 42 36 26 1 7 3 22 37 45 57 56 52 49 54 62 69 70 67 64 63 65 65 64 60 57 56 50 42 36 30 22 26
11 9 5 10 7 10 20 47 39 13 12 47 47 38 31 9 9 15 19 38 49 52 56 63 67 57 58 63 68 72 74 73 71 68 64 59 51 48 43 40 32 28 31 31
3 8 7 7 6 11 34 22 13 6 21 37 40 16 25 23 23 21 27 36 55 62 62 61 68 68 63 68 73 80 75 68 66 61 54 48 47 45 39 35 41 41 36 32
3 7 5 4 6 5 11 9 13 21 34 34 41 10 16 25 23 28 30 35 44 62 66 68 70 67 63 67 70 76 68 61 55 56 57 52 48 48 51 51 44 39 32 29
8 15 6 8 3 11 19 10 13 27 37 35 24 13 13 25 24 31 38 36 42 44 55 58 62 65 65 58 61 61 61 62 62 58 55 55 53 52 50 43 39 38 38 35
15 11 7 3 5 19 7 7 9 29 32 27 16 20 8 19 29 32 38 42 41 45 45 45 55 60 63 61 62 63 61 57 57 58 58 53 47 43 42 40 37 33 28 19
26 5 4 5 6 9 10 18 12 18 28 9 7 10 11 16 31 32 37 42 44 43 42 45 49 56 61 67 66 60 53 50 55 59 52 43 38 36 33 31 36 27 17 19
Wind_Direction_850mb
287 184 262 270 284 304 291 285 278 286 291 286 285 285 289 246 243 257 259 256 257 260 226 182 190 161 164 177 179 182 180 183 186 185 189 187 187 184 184 196 213 214 218 224
295 264 257 248 289 266 297 262 269 282 284 289 287 278 284 276 221 237 248 258 247 247 228 192 187 207 215 167 176 184 187 187 194 194 197 199 199 190 191 193 203 207 206 229
284 287 295 209 261 307 273 278 291 283 288 276 285 282 275 285 222 233 238 243 259 240 203 190 166 179 195 237 185 184 190 191 193 195 194 196 192 192 192 184 188 192 215 236
281 323 314 352 243 243 282 265 287 319 303 278 248 291 291 270 233 221 231 237 246 236 231 187 172 169 191 212 227 183 189 193 197 190 191 190 193 188 194 189 191 192 215 218
265 290 297 279 229 245 254 36 239 238 278 306 268 248 262 261 253 216 219 223 239 225 225 176 167 178 184 186 213 201 198 197 198 193 189 187 190 192 194 190 192 205 214 214
284 287 264 251 274 237 118 359 293 239 197 249 225 200 257 231 226 218 213 224 230 216 217 179 175 174 190 187 209 208 202 203 198 196 196 192 196 195 191 198 201 202 205 215
322 326 55 14 289 227 89 44 329 329 181 237 177 193 238 269 226 207 217 218 234 205 202 170 169 175 179 189 199 199 203 201 198 196 196 192 191 197 194 194 199 201 206 211
351 329 46 348 286 298 105 162 164 276 269 325 298 233 234 240 254 220 217 214 223 197 183 172 183 191 190 190 196 194 195 197 198 195 186 183 191 191 189 199 196 202 195 207
324 280 331 294 324 150 150 215 186 229 256 271 253 250 286 225 237 234 211 216 221 219 205 177 178 184 182 192 195 196 194 191 187 179 177 185 189 191 192 183 196 198 196 188
281 288 299 316 314 34 141 134 206 187 307 285 270 214 220 215 230 240 204 206 214 220 221 202 172 177 177 195 194 195 192 184 178 173 177 182 188 187 191 191 185 177 154 235
268 220 293 296 353 246 294 153 79 256 254 258 304 284 27 344 295 278 243 199 207 209 219 206 173 188 200 193 194 187 184 182 173 175 177 181 175 185 183 182 172 172 192 253
106 295 294 297 299 280 199 190 160 177 286 257 260 292 348 344 305 276 191 189 198 208 220 202 168 174 180 183 185 189 180 174 173 179 179 179 184 183 176 166 164 174 188 175
355 5 306 336 340 58 48 309 259 34 113 11 348 278 345 325 356 342 191 179 197 206 211 141 156 170 177 170 177 190 176 172 175 177 178 182 169 164 160 162 163 169 160 148
163 269 274 312 286 283 291 258 244 247 100 250 221 288 322 346 4 357 7 180 194 208 147 125 149 145 164 173 199 153 166 171 173 176 163 155 156 154 151 146 151 151 147 152
257 252 285 297 291 314 356 20 15 259 149 51 337 11 16 356 358 335 40 45 107 122 112 112 130 142 150 146 158 147 155 150 151 150 179 162 148 142 144 149 147 147 151 157
294 294 314 311 308 329 23 22 40 91 112 91 60 32 332 2 346 16 38 45 58 86 102 116 121 125 140 163 163 154 142 139 142 149 149 147 146 140 143 145 146 148 152 154
260 320 312 282 314 309 30 25 24 38 30 42 70 77 74 318 16 21 8 34 43 78 106 121 126 136 138 152 161 166 144 157 154 144 143 139 140 142 144 146 149 149 150 150
307 307 256 281 318 38 143 41 38 29 10 1 10 20 99 82 61 44 44 52 29 92 105 120 138 154 162 156 154 155 152 151 146 141 141 146 146 143 147 146 146 143 147 145
342 298 306 309 291 290 51 359 342 3 336 358 351 355 356 137 51 32 48 80 73 107 138 132 130 141 158 155 149 141 142 139 139 143 145 144 146 147 144 144 148 146 142 120
337 285 300 323 322 283 88 339 323 264 229 354 345 348 353 31 115 296 58 108 117 123 136 134 147 149 147 142 142 140 135 138 139 141 142 145 147 146 146 145 140 129 117 109
338 326 259 339 318 316 349 329 326 61 308 323 331 355 27 60 67 119 84 97 116 125 128 135 143 145 137 136 138 131 132 133 135 142 148 149 152 146 140 136 127 115 107 103
300 313 340 335 322 330 359 346 36 268 307 324 329 25 93 100 103 106 111 113 120 124 126 133 134 131 129 135 140 137 138 142 148 148 147 143 140 134 129 121 113 107 102 103
286 234 282 232 268 309 330 312 351 338 336 330 330 23 112 120 122 125 128 128 133 131 132 133 140 144 145 144 146 142 141 148 151 147 135 126 123 125 124 120 120 120 118 111
264 228 254 332 178 274 225 347 1 353 339 340 340 160 157 138 140 134 141 144 142 144 140 144 144 145 144 150 149 149 149 145 143 139 138 141 144 138 136 138 142 142 141 142
258 285 266 246 282 304 212 344 343 348 349 21 75 144 145 149 150 148 148 148 149 146 149 151 149 149 150 153 153 149 148 147 145 143 145 147 144 146 145 146 150 155 144 147
245 169 198 235 347 272 317 344 355 349 349 357 97 133 120 163 153 156 150 154 155 155 155 154 148 141 141 143 141 143 146 149 146 143 144 141 139 143 149 155 150 144 127 124